User: anonymous   Login
Location: Newark
(42.9858°N, 0.6717°E)
Time: 17:13:48
(UTC+00:00)
Language:

A-11 Canister half - Orbit

View from above orbital plane
View from above orbital plane
View from above satellite
View from above satellite

Ground track
Ground track

The orbit data is extracted from the following two-line orbital elements,

1    53U 60009E   19317.85065210 +.00000024 +00000-0 +10715-2 0  9993
2    53 047.2747 206.9485 0097240 160.4286 200.0273 12.17232087642182
Epoch (UTC): 13 November 2019 20:24:56
Eccentricity: 0.0097240
inclination: 47.2747°
perigee height: 1527 km
apogee height: 1682 km
right ascension of ascending node: 206.9485°
argument of perigee: 160.4286°
revolutions per day: 12.17232087
mean anomaly at epoch: 200.0273°
orbit number at epoch: 64218

The dashed part of the orbit path shows where the satellite is in the earth's shadow,  

DLR